Simultaneous Nadir Overpasses (SNOs) Predictions

Prediction of SNOs between FY3D and AQUA Satellite Orbit:

Table of predicted SNOs for the next 14.0 days since TLE Epoch: 2/24/2024
Index Date (FY3D) Time (FY3D) Lat,Lon (FY3D) SZA (FY3D ) Date (AQUA) Time (AQUA) Lat,Lon (AQUA) SZA (AQUA ) Distance(km) Time Diff (sec)
1 02/24/2024 14:42:58 79.15, -59.36 89.36 02/24/2024 14:42:58 79.15, -59.42 89.37 1.39 0
2 02/27/2024 02:46:55 -79.40, -62.30 91.20 02/27/2024 02:47:53 -79.39, -62.19 91.24 2.30 58
3 02/27/2024 03:37:32 79.12, 107.28 88.37 02/27/2024 03:37:09 79.11, 107.32 88.36 1.06 23
4 02/29/2024 15:41:26 -79.28, 105.11 92.35 02/29/2024 15:42:01 -79.29, 105.04 92.36 1.44 35
5 02/29/2024 16:32:06 79.09, -86.13 87.36 02/29/2024 16:31:19 79.08, -85.99 87.36 2.92 47
6 03/03/2024 04:35:59 -79.23, -88.08 93.41 03/03/2024 04:36:09 -79.22, -88.05 93.42 0.72 10
7 03/03/2024 05:26:35 78.90, 81.69 86.11 03/03/2024 05:25:24 78.91, 81.60 86.14 2.14 71
8 03/05/2024 16:39:52 79.39, -90.32 85.86 03/05/2024 16:40:58 79.39, -90.32 85.84 0.13 66
9 03/05/2024 17:30:31 -79.18, 78.69 94.47 03/05/2024 17:30:15 -79.17, 78.79 94.48 2.29 16
10 03/08/2024 05:34:24 79.32, 76.69 84.75 03/08/2024 05:35:03 79.32, 76.70 84.74 0.40 39



Historial Predications of SNOs between FY3D and AQUA
